Regional Weather Roundup
Issued by NWS

Home | Current Version | Previous Version | Text Only | Print | Product List | Glossary Off
Versions: 1 2 3 4 5 6 7 8 9 10 11 12 13 14 15 16 17 18 19 20 21 22 23 24 25 26 27 28 29 30 31 32 33 34 35 36 37 38 39 40 41 42 43 44 45 46 47 48 49 50

000
ASUS43 KDMX 161201
RWRIA

WEATHER ROUNDUP FOR IOWA
NATIONAL WEATHER SERVICE DES MOINES IA
600 AM CST SAT DEC 16 2017

NOTE: "FAIR" INDICATES FEW OR NO CLOUDS BELOW 12,000 FEET WITH NO
SIGNIFICANT WEATHER AND/OR OBSTRUCTIONS TO VISIBILITY.

* - THESE STATIONS ARE NOT NWS STATIONS...THUS NOT UNDER NWS
QUALITY CONTROL.  THEY ALSO DO NOT REPORT WEATHER SUCH
AS PRECIPITATION OR FOG.

IAZ001>003-012>014-020>022-031>034-043>046-161300-
   NORTHWEST IOWA

CITY           SKY/WX    TMP DP  RH WIND       PRES   REMARKS
CARROLL *      CLOUDY    32  23  69 W7        29.73R WCI  26
CHEROKEE *     CLOUDY    26  23  90 CALM      29.72R
DENISON *      CLOUDY    32  21  64 SW5       29.75R WCI  27
LE MARS *      CLOUDY    27  23  86 S6        29.72R WCI  20
ORANGE CITY *  CLOUDY    30  27  86 CALM      29.71R
SHELDON *      CLOUDY    23  21  93 CALM      29.69R
SIOUX CITY     CLOUDY    23  19  85 SE3       29.73R
6HR MIN TEMP:  23; 6HR MAX TEMP:  28;

SPENCER        CLOUDY    23  19  85 S5        29.70R WCI  17
6HR MIN TEMP:  22; 6HR MAX TEMP:  36;

STORM LAKE *   CLOUDY    28  21  74 SW7       29.71R WCI  21
$$

IAZ055>058-069>071-079>083-090>094-161300-
   SOUTHWEST IOWA

CITY           SKY/WX    TMP DP  RH WIND       PRES   REMARKS
ATLANTIC *     CLOUDY    27  23  86 SW6       29.75R WCI  20
AUDUBON *      CLOUDY    30  23  74 S5        29.74R WCI  25
CLARINDA *     CLOUDY    30  25  80 S3        29.80R
COUNCIL BLFS * CLOUDY    36  23  60 SW8       29.75R WCI  29
CRESTON *        N/A     34  25  69 SW9       29.77R WCI  26
HARLAN  *      CLOUDY    27  23  86 S7        29.77R WCI  19
LAMONI         CLOUDY    32  24  72 S9        29.78R WCI  24
6HR MIN TEMP:  32; 6HR MAX TEMP:  36;

RED OAK *      CLOUDY    30  23  74 SW3       29.77R
SHENANDOAH *   CLOUDY    34  25  69 SW8       29.78R WCI  27
$$

IAZ047>049-059>061-072>074-084-161300-
   CENTRAL IOWA

CITY           SKY/WX    TMP DP  RH WIND       PRES   REMARKS
AMES           CLOUDY    32  24  72 S5        29.72R WCI  27
6HR MIN TEMP:  31; 6HR MAX TEMP:  35;

ANKENY *       CLEAR     37  25  60 SW9       29.75R WCI  31
BOONE *        CLOUDY    34  23  64 SW12      29.70R WCI  25
CHARITON *     PTCLDY    36  25  64 SW14      29.76S WCI  27
DES MOINES     CLEAR     36  24  62 SW7       29.75R WCI  30
6HR MIN TEMP:  36; 6HR MAX TEMP:  39;

GRINNELL*      CLEAR     33  25  72 SW14      29.75R WCI  24
KNOXVILLE *    CLEAR     36  23  60 SW8       29.75R WCI  29
MARSHALLTOWN   CLOUDY    29  22  75 SW8       29.72R WCI  21
6HR MIN TEMP:  29; 6HR MAX TEMP:  35;

NEWTON *       PTCLDY    34  25  69 SW8       29.75R WCI  27
PELLA *        CLEAR     36  25  65 SW10      29.77R WCI  28
PERRY *          N/A     29  20  68 SW8       29.73R WCI  21
$$

IAZ004>006-015-016-023>025-035-036-161300-
   NORTH CENTRAL IOWA

CITY           SKY/WX    TMP DP  RH WIND       PRES   REMARKS
ALGONA *       CLOUDY    25  25 100 S10       29.68R WCI  15
CLARION *      CLOUDY    23  23 100 S9        29.70S WCI  13
ESTHERVILLE    CLOUDY    28  24  85 NW9       29.67R WCI  19
6HR MIN TEMP:  26; 6HR MAX TEMP:  36;

FORT DODGE *   PTCLDY    28  22  78 W5        29.71R WCI  23
MASON CITY     CLOUDY    29  21  72 SW9       29.70R WCI  20
6HR MIN TEMP:  28; 6HR MAX TEMP:  33;

FOREST CITY *    N/A     23  21  93 S5        29.69R WCI  17
WEBSTER CITY * CLOUDY    27  19  74 SW7       29.69R WCI  19
IOWA FALLS *     N/A     31  24  72 CALM      29.72R
$$

IAZ007>011-017>019-026>030-037>042-050>054-066-161300-
   NORTHEAST IOWA

CITY           SKY/WX    TMP DP  RH WIND       PRES   REMARKS
CEDAR RAPIDS   CLEAR     30  23  75 S9        29.74R WCI  22
6HR MIN TEMP:  30; 6HR MAX TEMP:  34;

CHARLES CITY * CLOUDY    25  23  93 S8        29.70R WCI  16
CLINTON *      PTCLDY    29  24  82 S8        29.79R WCI  21
DECORAH *      CLOUDY    32  25  74 CALM      29.70R
DUBUQUE        PTCLDY    27  22  81 S10       29.74R WCI  17
6HR MIN TEMP:  27; 6HR MAX TEMP:  34;

MONTICELLO *   CLEAR     28  21  74 S6        29.75R WCI  22
OELWEIN *      CLOUDY    23  23 100 S8        29.72S WCI  14
WATERLOO       CLOUDY    24  19  81 CALM      29.72R
6HR MIN TEMP:  24; 6HR MAX TEMP:  34;

$$

IAZ064-065-067-068-078-161300-
   EAST CENTRAL IOWA

CITY           SKY/WX    TMP DP  RH WIND       PRES   REMARKS
DAVENPORT      CLEAR     34  24  67 S13       29.81R WCI  25
6HR MIN TEMP:  33; 6HR MAX TEMP:  35;

IOWA CITY      CLEAR     27  21  78 S5        29.78S WCI  22
6HR MIN TEMP:  27; 6HR MAX TEMP:  36;

MT. PLEASANT * CLEAR     33  24  69 S13       29.80S WCI  24
MUSCATINE *    CLEAR     34  25  69 S10       29.80S WCI  26
QUAD CITIES    CLEAR     34  24  67 SW6       29.79R WCI  29
6HR MIN TEMP:  32; 6HR MAX TEMP:  37;

$$

IAZ062-063-075>077-085>089-095>099-161300-
   SOUTHEAST IOWA

CITY           SKY/WX    TMP DP  RH WIND       PRES   REMARKS
BURLINGTON     CLEAR     33  25  72 SW13      29.82R WCI  24
6HR MIN TEMP:  33; 6HR MAX TEMP:  35;

FAIRFIELD *    CLEAR     36  23  60 SW9       29.78S WCI  29
FORT MADISON * CLEAR     36  25  64 SW10G16   29.83R WCI  28
KEOKUK *       CLEAR     34  25  69 SW12      29.83R WCI  25
OSKALOOSA *      N/A     35  25  68 SW14      29.77R WCI  26
OTTUMWA        CLEAR     39  24  55 SW16      29.76S WCI  30
6HR MIN TEMP:  36; 6HR MAX TEMP:  41;

WASHINGTON *   CLEAR     34  27  75 SW12      29.79S WCI  25
$$

ABBREVIATIONS USED IN REMARKS
   TC - TEMPERATURES IN CELSIUS
  WCI - WIND CHILL INDEX
   HX - HEAT INDEX
  VSB - VISIBILITY
$$





USA.gov is the U.S. government's official web portal to all federal, state and local government web resources and services.